When you browse on this site, cookies collect data to enhance your experience and personalize the content and advertising you see.
Visit our Privacy Policy to learn more. By continuing to use the site, you agree to this use of cookies and data.
  • In Austria
  • List of Countries
  • For 7 days
  • Water Temperature
  • Weather Map
  • News
  • Weather Widgets
  • user-avatar
    Login

    Hourly Weather Rochechouart

    Today, 13 December, Friday

    Time Temperature Precipitation Wind Pressure Humidity
    00:00 +9°C° 0.6 mm 5 mps 722 mmHg 94%
    01:00 +9°C° 0.9 mm 5 mps 722 mmHg 94%
    02:00 +9°C° 0.9 mm 6 mps 721 mmHg 93%
    03:00 +9°C° 0.9 mm 6 mps 720 mmHg 92%
    04:00 +9°C° 1.3 mm 6 mps 721 mmHg 90%
    05:00 +8°C° 1.3 mm 6 mps 721 mmHg 89%
    06:00 +8°C° 1.3 mm 6 mps 721 mmHg 87%
    07:00 +7°C° 0.6 mm 6 mps 722 mmHg 87%
    08:00 +7°C° 0.6 mm 5 mps 723 mmHg 87%
    09:00 +6°C° 0.6 mm 5 mps 724 mmHg 88%
    10:00 +6°C° 0.3 mm 5 mps 725 mmHg 85%
    11:00 +5°C° 0.3 mm 6 mps 725 mmHg 82%
    12:00 +7°C° 0.3 mm 6 mps 726 mmHg 79%
    13:00 +5°C° 0.1 mm 6 mps 726 mmHg 79%
    14:00 +6°C° 0.1 mm 5 mps 727 mmHg 80%
    15:00 +6°C° 0.1 mm 5 mps 727 mmHg 80%
    16:00 +6°C° 0 mm 4 mps 728 mmHg 82%
    17:00 +7°C° 0 mm 3 mps 728 mmHg 84%
    18:00 +6°C° 0 mm 2 mps 729 mmHg 87%
    19:00 +7°C° 0.5 mm 2 mps 729 mmHg 90%
    20:00 +7°C° 0.5 mm 2 mps 729 mmHg 94%
    21:00 +8°C° 0.5 mm 2 mps 729 mmHg 98%
    22:00 +9°C° 0.7 mm 3 mps 729 mmHg 96%
    23:00 +10°C° 0.7 mm 4 mps 729 mmHg 95%

    Tomorrow, 14 December, Saturday

    Time Temperature Precipitation Wind Pressure Humidity
    00:00 +12°C° 0.7 mm 5 mps 729 mmHg 93%
    01:00 +12°C° 0.5 mm 5 mps 729 mmHg 93%
    02:00 +12°C° 0.5 mm 5 mps 729 mmHg 93%
    03:00 +12°C° 0.5 mm 5 mps 730 mmHg 93%
    04:00 +12°C° 0.5 mm 5 mps 730 mmHg 93%
    05:00 +10°C° 0.5 mm 5 mps 731 mmHg 93%
    06:00 +10°C° 0.5 mm 5 mps 732 mmHg 93%
    07:00 +10°C° 0.7 mm 5 mps 732 mmHg 93%
    08:00 +10°C° 0.7 mm 5 mps 733 mmHg 94%
    09:00 +11°C° 0.7 mm 4 mps 733 mmHg 95%
    10:00 +10°C° 0.8 mm 5 mps 733 mmHg 94%
    11:00 +10°C° 0.8 mm 5 mps 733 mmHg 93%
    12:00 +12°C° 0.8 mm 5 mps 733 mmHg 93%
    13:00 +10°C° 0.5 mm 5 mps 733 mmHg 93%
    14:00 +10°C° 0.5 mm 5 mps 733 mmHg 93%
    15:00 +10°C° 0.5 mm 5 mps 733 mmHg 93%
    16:00 +10°C° 0.3 mm 5 mps 733 mmHg 92%
    17:00 +11°C° 0.3 mm 4 mps 733 mmHg 91%
    18:00 +11°C° 0.3 mm 4 mps 733 mmHg 90%
    19:00 +11°C° 0.2 mm 4 mps 733 mmHg 90%
    20:00 +11°C° 0.2 mm 4 mps 733 mmHg 90%
    21:00 +11°C° 0.2 mm 4 mps 733 mmHg 90%
    22:00 +10°C° 0.2 mm 4 mps 733 mmHg 89%
    23:00 +10°C° 0.2 mm 4 mps 733 mmHg 87%

    Day after tomorrow, 15 December, Sunday

    Time Temperature Precipitation Wind Pressure Humidity
    00:00 +10°C° 0.2 mm 4 mps 733 mmHg 85%
    01:00 +10°C° 0.4 mm 4 mps 733 mmHg 87%
    02:00 +10°C° 0.4 mm 4 mps 733 mmHg 88%
    03:00 +10°C° 0.4 mm 4 mps 733 mmHg 90%
    04:00 +10°C° 1.4 mm 3 mps 734 mmHg 92%
    05:00 +10°C° 1.4 mm 3 mps 734 mmHg 94%
    06:00 +9°C° 1.4 mm 2 mps 734 mmHg 96%
    07:00 +9°C° 0.4 mm 2 mps 734 mmHg 95%
    08:00 +9°C° 0.4 mm 3 mps 735 mmHg 95%
    09:00 +10°C° 0.4 mm 3 mps 735 mmHg 94%
    10:00 +10°C° 0.1 mm 3 mps 735 mmHg 92%
    11:00 +9°C° 0.1 mm 3 mps 735 mmHg 91%
    12:00 +9°C° 0.1 mm 3 mps 735 mmHg 89%
    13:00 +9°C° 0.1 mm 3 mps 735 mmHg 90%
    14:00 +9°C° 0.1 mm 3 mps 734 mmHg 90%
    15:00 +9°C° 0.1 mm 3 mps 734 mmHg 91%
    16:00 +9°C° 0.3 mm 3 mps 734 mmHg 91%
    17:00 +9°C° 0.3 mm 2 mps 734 mmHg 91%
    18:00 +9°C° 0.3 mm 2 mps 734 mmHg 91%
    19:00 +9°C° 0.4 mm 2 mps 734 mmHg 92%
    20:00 +9°C° 0.4 mm 2 mps 735 mmHg 93%
    21:00 +10°C° 0.4 mm 2 mps 735 mmHg 94%
    22:00 +9°C° 0.1 mm 2 mps 735 mmHg 93%
    23:00 +9°C° 0.1 mm 2 mps 734 mmHg 93%

    16 December, Monday

    Time Temperature Precipitation Wind Pressure Humidity
    00:00 +9°C° 0.1 mm 2 mps 734 mmHg 93%
    01:00 +9°C° 0.1 mm 2 mps 734 mmHg 93%
    02:00 +9°C° 0.1 mm 2 mps 733 mmHg 93%
    03:00 +9°C° 0.1 mm 2 mps 733 mmHg 93%
    04:00 +9°C° 0 mm 2 mps 732 mmHg 92%
    05:00 +8°C° 0 mm 2 mps 732 mmHg 92%
    06:00 +8°C° 0 mm 2 mps 731 mmHg 92%
    07:00 +9°C° 0 mm 2 mps 731 mmHg 91%
    08:00 +9°C° 0 mm 2 mps 731 mmHg 90%
    09:00 +9°C° 0 mm 3 mps 731 mmHg 88%
    10:00 +11°C° 0 mm 3 mps 730 mmHg 85%
    11:00 +12°C° 0 mm 4 mps 730 mmHg 81%
    12:00 +13°C° 0 mm 4 mps 729 mmHg 78%
    13:00 +13°C° 0 mm 4 mps 729 mmHg 78%
    14:00 +13°C° 0 mm 3 mps 729 mmHg 79%
    15:00 +13°C° 0 mm 3 mps 728 mmHg 80%
    16:00 +12°C° 0 mm 3 mps 728 mmHg 82%
    17:00 +11°C° 0 mm 3 mps 728 mmHg 85%
    18:00 +11°C° 0 mm 3 mps 728 mmHg 87%
    19:00 +12°C° 0 mm 2 mps 728 mmHg 87%
    20:00 +12°C° 0 mm 2 mps 729 mmHg 87%
    21:00 +12°C° 0 mm 2 mps 729 mmHg 87%
    22:00 +12°C° 0 mm 2 mps 729 mmHg 88%
    23:00 +10°C° 0 mm 2 mps 729 mmHg 89%

    17 December, Tuesday

    Time Temperature Precipitation Wind Pressure Humidity
    00:00 +10°C° 0 mm 2 mps 730 mmHg 90%
    01:00 +10°C° 0.4 mm 2 mps 730 mmHg 91%
    02:00 +10°C° 0.4 mm 2 mps 730 mmHg 92%
    03:00 +10°C° 0.4 mm 2 mps 731 mmHg 92%
    04:00 +10°C° 0.5 mm 2 mps 731 mmHg 93%
    05:00 +10°C° 0.5 mm 2 mps 732 mmHg 95%
    06:00 +11°C° 0.5 mm 1 mps 732 mmHg 96%
    07:00 +11°C° 0 mm 1 mps 733 mmHg 96%
    08:00 +9°C° 0 mm 2 mps 734 mmHg 96%
    09:00 +9°C° 0 mm 2 mps 735 mmHg 96%
    10:00 +9°C° 0 mm 2 mps 735 mmHg 94%
    11:00 +8°C° 0 mm 2 mps 736 mmHg 93%
    12:00 +8°C° 0 mm 2 mps 736 mmHg 92%
    13:00 +8°C° 0 mm 2 mps 737 mmHg 90%
    14:00 +9°C° 0 mm 1 mps 737 mmHg 89%
    15:00 +9°C° 0 mm 1 mps 738 mmHg 88%
    16:00 +8°C° 0 mm 1 mps 738 mmHg 90%
    17:00 +7°C° 0 mm 1 mps 739 mmHg 92%
    18:00 +5°C° 0 mm 0 mps 739 mmHg 94%
    19:00 +5°C° 0 mm 0 mps 740 mmHg 95%
    20:00 +5°C° 0 mm 0 mps 741 mmHg 95%
    21:00 +4°C° 0 mm 0 mps 741 mmHg 96%
    22:00 +4°C° 0 mm 0 mps 741 mmHg 96%
    23:00 +4°C° 0 mm 0 mps 742 mmHg 96%

    18 December, Wednesday

    Time Temperature Precipitation Wind Pressure Humidity
    00:00 +4°C° 0 mm 0 mps 742 mmHg 96%
    01:00 +4°C° 0 mm 0 mps 742 mmHg 96%
    02:00 +4°C° 0 mm 0 mps 742 mmHg 96%
    03:00 +5°C° 0 mm 1 mps 742 mmHg 97%
    04:00 +5°C° 0 mm 1 mps 742 mmHg 97%
    05:00 +5°C° 0 mm 1 mps 742 mmHg 97%
    06:00 +5°C° 0 mm 1 mps 742 mmHg 97%
    07:00 +6°C° 0 mm 1 mps 742 mmHg 95%
    08:00 +7°C° 0 mm 1 mps 742 mmHg 94%
    09:00 +7°C° 0 mm 1 mps 742 mmHg 93%
    10:00 +9°C° 0 mm 1 mps 742 mmHg 89%
    11:00 +11°C° 0 mm 1 mps 742 mmHg 86%
    12:00 +13°C° 0 mm 1 mps 742 mmHg 82%
    13:00 +13°C° 0 mm 1 mps 741 mmHg 84%
    14:00 +13°C° 0 mm 1 mps 741 mmHg 86%
    15:00 +13°C° 0 mm 1 mps 741 mmHg 87%
    16:00 +12°C° 0 mm 1 mps 740 mmHg 89%
    17:00 +10°C° 0 mm 2 mps 740 mmHg 91%
    18:00 +10°C° 0 mm 2 mps 740 mmHg 93%
    19:00 +10°C° 0 mm 2 mps 740 mmHg 92%
    20:00 +10°C° 0 mm 2 mps 740 mmHg 91%
    21:00 +10°C° 0 mm 2 mps 740 mmHg 90%
    22:00 +10°C° 0 mm 2 mps 740 mmHg 89%
    23:00 +10°C° 0 mm 2 mps 739 mmHg 89%
    Show more